Location: Newark
(49.8348°N, 24.0280°E)
Time: 06:06:16
(UTC+00:00)

Transit 2A - Pass Details

Date: 23 January 2020
Orbit: 600 x 959 km, 66.7° (Epoch: 19 February)

Event Time Altitude Azimuth Distance (km) Brightness Sun altitude
Rises 18:59:57 0° 211° (SSW) 2,891 - -37.8°
Reaches altitude 10° 19:02:14 10° 210° (SSW) 1,964 - -38.1°
Maximum altitude 19:06:36 78° 124° (SE) 619 - -38.8°
Drops below altitude 10° 19:10:57 10° 39° (NE) 1,959 - -39.5°
Sets 19:13:13 0° 38° (NE) 2,883 - -39.8°
